Showing default

GALILEO 27 (223), 49809

Orbit data source: Space-Track

GALILEO 27 (223), 49809 is a payload satellite owned by EU SPA (ESA) that was launched on Sun, 05 Dec 2021 UTC via a SOYUZ-ST-B launch vehicle from the French Guiana (FRGUI). Payload-class satellites include a variety of spacecraft equipped with specific instruments for various scientific and technological missions. These include communications satellites like Starlink; space stations such as the ISS; scientific satellites like the Hubble; Earth observation satellites from companies like Planet Labs, Umbra, and HawkEye 360; GPS; miniature CubeSats for education and research; and military/defense satellites.

Loading next visibility...
Identifier
49809, 2021-116A
Orbit
Active
Country
Flag of ESAESA
Related business
Manufacturer
OHB
Mission
Operational Civil Navigation
Bus & Motor
GALILEO, AOCS
Mass
733 kg wet, 660 kg dry
Launch date (UTC)
2021-12-05 (5 years ago)
Launch vehicle
SOYUZ-ST-B
Launch site
French Guiana (FRGUI)
Object type
Payload
Rocket body
Debris
Shape & HBR
Box + 2 Pan, 7.3 m
Radar Cross Section
9.223 m², Large (>1 m²)

Expand to show TLE details & history
Last TLE update: 2 days ago

TLE from 2 days ago
0 GALILEO 27 (223)
1 49809U 21116A   26171.21352742 -.00000095  00000-0  00000+0 0  9998
2 49809  57.1598 341.5920 0001560 185.4323 351.7235  1.70476002 28237
Epoch: 2026-06-20T05:07Z
TLE epoch observation values (Epoch: 2026-06-20T05:07:28.769Z)
Latitude
2.34908°
Longitude
174.76394°
Altitude
23,217.432 km
Speed
3.67 km/s
True Right ascension
10h 40m 15s
True Declination
2° 20' 44"
Sunlit
Object was in daylight at epoch
Visualization orbit readout
Latitude
Unknown
Longitude
Unknown
Altitude
Unknown
Speed
Unknown
Apparent Right ascension
Unknown
Apparent Declination
Unknown
Sunlit
N/A
Visualization observer readout
Local Sidereal Time
21:24:14
Azimuth
Unknown
Elevation
Unknown
Doppler factor
Unknown
Orbital elements
Apogee altitude
23,226.499 km
Perigee altitude
23,217.264 km
Semi-major axis
29,600.019 km
Eccentricity
0.00016
Inclination
57.1598°
RAAN
341.592°
Arg. of periapsis
185.4323°
True anomaly
351.72093°
Mean anomaly
351.7235°
Eccentric anomaly
351.72221°
Mean motion
0.42619 °/min
Orbital period
844.69 mins
BSTAR
0
Loading maneuver chart data...
Computing Atmospheric mass density...
Loading historical data...
Loading historical data...
Loading historical data...
Loading historical data...
Loading historical data...
Loading historical data...
Loading historical data...
Other satellites on launch #116 in the year 2021 (2021-12-05 UTC)

Documentation

Showing up to 5 results
|